EW6426 Weather Reports


Display with metric or nautical units.
time (UTC)temp
F
wind
direction
speed
MPH
gust
MPH
rain 1hr
in
rain 24hr
in
rain mn
in
humidity
%
barometer
mb
20260507083032 33 182 0.0 0.0 0.00 0.00 0.00 67 1011.8
20260507081525 34 178 0.0 0.0 0.00 0.00 0.00 65 1011.9
20260507080023 34 200 0.0 0.0 0.00 0.00 0.00 64 1012.0
20260507074518 35 186 0.0 0.0 0.00 0.00 0.00 62 1012.1
20260507073015 36 189 0.0 0.0 0.00 0.00 0.00 61 1012.2
20260507071512 37 188 0.0 0.0 0.00 0.00 0.00 59 1012.3
20260507070013 37 206 0.0 0.0 0.00 0.00 0.00 60 1012.4
20260507064509 37 171 0.0 0.0 0.00 0.00 0.00 61 1012.4
20260507063007 37 173 0.0 0.0 0.00 0.00 0.00 61 1012.5
20260507061507 37 163 0.0 0.0 0.00 0.00 0.00 60 1012.7
20260507060006 37 189 0.0 0.0 0.00 0.00 0.00 61 1012.6
20260507054515 37 146 0.0 0.0 0.00 0.00 0.00 61 1012.5
20260507053004 37 148 0.0 0.0 0.00 0.00 0.00 62 1012.5
20260507051501 38 175 0.0 0.0 0.00 0.00 0.00 60 1012.5
20260507050058 38 162 0.0 0.0 0.00 0.00 0.00 60 1012.8
20260507044558 39 151 0.0 0.0 0.00 0.00 0.00 58 1013.0
20260507043056 40 148 0.0 0.0 0.00 0.00 0.00 57 1012.9
20260507041555 41 146 0.0 0.0 0.00 0.00 0.00 55 1013.2
20260507040056 42 138 0.0 0.0 0.00 0.00 0.00 54 1013.3
20260507034557 42 144 0.0 0.0 0.00 0.00 0.00 53 1013.3
20260507033056 43 140 0.0 0.0 0.00 0.00 0.00 52 1013.3
20260507031552 43 147 0.0 0.0 0.00 0.00 0.00 51 1013.3
20260507030052 44 135 0.0 0.0 0.00 0.00 0.00 49 1013.5
20260507024604 45 130 0.0 0.0 0.00 0.00 0.00 47 1013.5
20260507023051 46 112 0.0 0.0 0.00 0.00 0.00 44 1013.4
20260507021552 46 91 0.0 0.0 0.00 0.00 0.00 42 1013.4
20260507020107 47 101 0.0 0.0 0.00 0.00 0.00 41 1013.4
20260507014553 48 72 0.0 0.0 0.00 0.00 0.00 40 1013.3
20260507013054 48 72 0.0 0.0 0.00 0.00 0.00 39 1013.4
20260507011547 49 44 0.0 0.0 0.00 0.00 0.00 38 1013.3
20260507010048 49 44 0.0 0.0 0.00 0.00 0.00 37 1013.4
20260507004553 51 49 0.0 0.0 0.00 0.00 0.00 35 1013.5
20260507003048 51 347 0.0 0.0 0.00 0.00 0.00 33 1013.6
20260507001545 50 315 0.0 0.0 0.00 0.00 0.00 34 1013.7
20260507000039 51 340 0.0 0.0 0.00 0.00 0.00 33 1013.9
20260506234543 52 5 0.0 0.0 0.00 0.00 0.00 33 1014.0
20260506233035 52 305 0.0 0.0 0.00 0.00 0.00 33 1014.1
20260506231535 52 348 0.0 0.0 0.00 0.00 0.00 33 1014.3
20260506230042 51 316 0.0 0.0 0.00 0.00 0.00 34 1014.3
20260506224534 51 339 0.0 0.0 0.00 0.00 0.00 34 1014.4
20260506223041 50 42 0.0 0.0 0.00 0.00 0.00 37 1014.5
20260506221529 50 16 0.0 0.0 0.00 0.00 0.00 34 1014.7
20260506220027 51 139 0.0 0.0 0.00 0.00 0.00 35 1014.8
20260506214536 49 311 0.0 0.0 0.00 0.00 0.00 36 1015.1
20260506213021 49 273 0.0 0.0 0.00 0.00 0.00 37 1015.3
20260506211520 49 340 0.0 0.0 0.00 0.00 0.00 37 1015.5
20260506210020 49 346 0.0 0.0 0.00 0.00 0.00 37 1015.7
20260506204518 49 308 0.0 0.0 0.00 0.00 0.00 37 1015.8
20260506203018 49 313 0.0 0.0 0.00 0.00 0.00 39 1016.0
20260506201513 50 17 0.0 0.0 0.00 0.00 0.00 37 1016.2
20260506200011 48 335 0.0 0.0 0.00 0.00 0.00 39 1016.5
20260506194509 49 342 0.0 0.0 0.00 0.00 0.00 38 1016.5
20260506193005 48 312 0.0 0.0 0.00 0.00 0.00 39 1016.8
20260506191504 47 314 0.0 0.0 0.00 0.00 0.00 40 1017.0
20260506190006 47 325 0.0 0.0 0.00 0.00 0.00 40 1017.1
20260506184606 47 28 0.0 0.0 0.00 0.00 0.00 41 1017.2
20260506183104 46 306 0.0 0.0 0.00 0.00 0.00 41 1017.3
20260506181621 46 315 0.0 0.0 0.00 0.00 0.00 41 1017.5
20260506180054 46 325 0.0 0.0 0.00 0.00 0.00 42 1017.8
20260506174552 45 331 0.0 0.0 0.00 0.00 0.00 44 1017.9
20260506173059 44 320 0.0 0.0 0.00 0.00 0.00 44 1018.1
20260506171550 45 317 0.0 0.0 0.00 0.00 0.00 44 1018.3
20260506170050 45 325 0.0 0.0 0.00 0.00 0.00 45 1018.5
20260506164548 44 17 0.0 0.0 0.00 0.00 0.00 46 1018.5
20260506163045 43 5 0.0 0.0 0.00 0.00 0.00 46 1018.7
20260506161546 43 296 0.0 0.0 0.00 0.00 0.00 47 1018.7
20260506160051 42 288 0.0 0.0 0.00 0.00 0.00 47 1018.7
20260506154540 42 38 0.0 0.0 0.00 0.00 0.00 47 1018.8
20260506153054 41 22 0.0 0.0 0.00 0.00 0.00 51 1018.8
20260506151539 41 12 0.0 0.0 0.00 0.00 0.00 51 1019.0
20260506150034 40 336 0.0 0.0 0.00 0.00 0.00 54 1019.1
20260506144529 39 9 0.0 0.0 0.00 0.00 0.00 55 1019.1
20260506143031 38 31 0.0 0.0 0.00 0.00 0.00 58 1019.2
20260506141522 37 22 0.0 0.0 0.00 0.00 0.00 63 1019.1
20260506140018 36 44 0.0 0.0 0.00 0.00 0.00 70 1019.2
20260506134515 34 46 0.0 0.0 0.00 0.00 0.00 74 1019.2
20260506133010 33 46 0.0 0.0 0.00 0.00 0.00 74 1019.2
20260506131507 32 46 0.0 0.0 0.00 0.00 0.00 75 1019.1
20260506130007 32 46 0.0 0.0 0.00 0.00 0.00 75 1019.1
20260506124504 32 46 0.0 0.0 0.00 0.00 0.00 75 1018.9
20260506123002 31 46 0.0 0.0 0.00 0.00 0.00 78 1018.7
20260506121501 31 46 0.0 0.0 0.00 0.00 0.00 79 1018.6
20260506120058 30 46 0.0 0.0 0.00 0.00 0.00 80 1018.4
20260506114604 30 46 0.0 0.0 0.00 0.00 0.00 81 1018.3
20260506113057 29 46 0.0 0.0 0.00 0.00 0.00 80 1018.3
20260506111555 30 46 0.0 0.0 0.00 0.00 0.00 79 1018.2
20260506110055 31 46 0.0 0.0 0.00 0.00 0.00 78 1018.2
20260506104559 31 46 0.0 0.0 0.00 0.00 0.00 77 1018.1
20260506103055 32 46 0.0 0.0 0.00 0.00 0.00 77 1018.2
20260506101553 32 46 0.0 0.0 0.00 0.00 0.00 77 1018.1
20260506100050 32 46 0.0 0.0 0.00 0.00 0.00 77 1018.2
20260506094549 32 45 0.0 0.0 0.00 0.00 0.00 76 1018.2
20260506093047 32 45 0.0 0.0 0.00 0.00 0.00 76 1018.2
20260506091553 32 45 0.0 0.0 0.00 0.00 0.00 75 1018.0
20260506090049 32 45 0.0 0.0 0.00 0.00 0.00 74 1018.0
20260506084545 32 45 0.0 0.0 0.00 0.00 0.00 75 1017.9